Regional Weather Roundup
Issued by NWS Sterling, VA

Home | Current Version | Previous Version | Graphics & Text | Print | Product List | Glossary On
Versions: 1 2 3 4 5 6 7 8 9 10 11 12 13 14 15 16 17 18 19 20 21 22 23 24 25 26 27 28 29 30 31 32 33 34 35 36 37 38 39 40 41 42 43 44 45 46 47 48 49 50
000
ASUS41 KLWX 011910
RWRLWX

REGIONAL WEATHER ROUNDUP
NATIONAL WEATHER SERVICE BALTIMORE MD/WASHINGTON DC
300 PM EDT TUE SEP 01 2015

Note: "FAIR" indicates few or no clouds below 12,000 feet
with no significant weather and/or obstructions to visibility.
 TC=TEMPERATURE CELSIUS

 * =Non NWS site. Station does not report precipitation (e.g. rain,
    snow, etc.), thunder, or fog.

DCZ001-MDZ009-015-VAZ040>042-051-053>054-012000-
WASHINGTON METRO

CITY           SKY/WX    TMP DP  RH WIND       PRES   REMARKS
WASHINGTON NAT PTSUNNY   95  65  37 N7        30.03F HX  97
DULLES         MOSUNNY   91  66  43 NW9       30.05F HX  93
ANDREWS AFB    SUNNY     89  66  46 NE7       30.03F HX  92
FT BELVOIR     MOSUNNY   91  65  41 VRB2      30.02F HX  93
QUANTICO       MOSUNNY   87  74  64 S7        30.03F HX  95
COLLEGE PARK*  PTSUNNY   91  63  38 CALM      30.02F HX  92
LEESBURG*      MOSUNNY   91  68  46 NW8G18    30.06F HX  95
GAITHERSBURG*  CLOUDY    90  66  45 W6        30.08F HX  92

$$

MDZ006>007-011-014-012000-
BALTIMORE METRO

CITY           SKY/WX    TMP DP  RH WIND       PRES   REMARKS
BWI AIRPORT    MOSUNNY   92  65  40 N7        30.02F HX  94
MD SCIENCE CTR   N/A     91  66  43 MISG      30.02F HX  93
MARTIN STATE   MOSUNNY   90  75  62 SE7       30.04F HX 100
ANNAPOLIS      SUNNY     85  72  65 SE9       30.03F HX  91
FORT MEADE*    MOSUNNY   90  64  43 NW3       30.05F HX  91

$$

MDZ012-015-019>023-012000-
MARYLAND EASTERN SHORE

CITY           SKY/WX    TMP DP  RH WIND       PRES   REMARKS
OCEAN CITY     SUNNY     85  73  67 SW7       30.03F HX  91
SALISBURY      MOSUNNY   91  69  48 SW9       30.01F HX  96
BAY BRIDGE AP*   N/A     88  66  48 CALM      30.02F HX  90
CAMBRIDGE*     SUNNY     88  72  58 NW6       30.02F HX  94
EASTON*        MOSUNNY   91  70  49 NW8       30.06F HX  97

$$

MDZ017>025-012000-
SOUTHERN MARYLAND

CITY           SKY/WX    TMP DP  RH WIND       PRES   REMARKS
PATUXENT RIVER MOSUNNY   86  71  60 E8        30.04F HX  91
ST INIGOES     SUNNY     88  67  49 S3        30.03F HX  91
LEONARDTOWN*   NOT AVBL

$$

MDZ003>005-012000-
NORTH CENTRAL MARYLAND

CITY           SKY/WX    TMP DP  RH WIND       PRES   REMARKS
FREDERICK*     MOSUNNY   91  68  46 VRB5      30.07F HX  95
HAGERSTOWN APT MOSUNNY   92  62  36 MISG      30.06F HX  92
WESTMINSTER*   MOSUNNY   90  64  43 SW5       30.06F HX  91

$$

MDZ501>502-012000-
WESTERN MARYLAND

CITY           SKY/WX    TMP DP  RH WIND       PRES   REMARKS
OAKLAND*       SUNNY     73  61  64 CALM      30.21F
CUMBERLAND*    SUNNY     91  63  38 SE3       30.10F HX  92

$$

VAZ025>031-012000-
SHENANDOAH VALLEY

CITY           SKY/WX    TMP DP  RH WIND       PRES   REMARKS
WINCHESTER*    SUNNY     91  61  35 NW7       30.06F HX  91
FRONT ROYAL*   FAIR      90  66  45 E8        30.05F HX  92
LURAY*         FAIR      90  59  35 NE3       30.06F
NEW MARKET*    FAIR      91  63  39 CALM      30.04F HX  92
STAUNTON*      MOSUNNY   90  60  36 SW3       30.11F
WAYNESBORO*    MOCLDY    88  63  42 CALM      30.12S

$$

WVZ021-048>050-054>055-012000-
EASTERN WEST VIRGINIA PANHANDLE

CITY           SKY/WX    TMP DP  RH WIND       PRES   REMARKS
MARTINSBURG    SUNNY     91  64  40 VRB3      30.06  HX  92
PETERSBURG*    MOSUNNY   89  65  45 E3        30.09F HX  91

$$

VAZ036>039-050-012000-
CENTRAL FOOTHILLS

CITY           SKY/WX    TMP DP  RH WIND       PRES   REMARKS
CHARLOTTESVILL MOSUNNY   89  66  46 E5        30.07F HX  91
CULPEPER*      SUNNY     89  67  47 CALM      30.06F HX  92
ORANGE*        PTSUNNY   90  64  43 NW5       30.07F HX  91
GORDONSVILLE*  CLOUDY    86  70  59 CALM      30.05F HX  90
WARRENTON*     FAIR      93  67  42 N6        30.05F HX  96

$$

VAZ055>057-012000-
NORTH AND CENTRAL PIEDMONT

CITY           SKY/WX    TMP DP  RH WIND       PRES   REMARKS
FREDERICKSBRG* MOSUNNY   94  68  42 NE5       30.03F HX  98
STAFFORD*      SUNNY     91  60  35 N7        30.08F HX  91

$$

NCZ024-NYZ072-PAZ021-071-VAZ022-071-012000-
OTHER REGIONAL OBSERVATIONS

CITY           SKY/WX    TMP DP  RH WIND       PRES   REMARKS
NEW YORK CITY  MOSUNNY   89  61  38 CALM      30.05F
PHILADELPHIA   MOSUNNY   93  58  30 N3        30.01F HX  92
PITTSBURGH     MOSUNNY   89  62  40 N6        30.11F
ROANOKE        MOSUNNY   91  61  36 W3        30.12F HX  91
RICHMOND       MOSUNNY   91  68  46 E9        30.04F HX  95
RALEIGH        MOSUNNY   90  68  48 E5        30.07F HX  94

$$

ANZ530>537-012000-
MARINE OBSERVATIONS

STATION/POSITION TIME  TEMP    WIND        PRES
                       AIR SEA DIR/SP/G
                 (UTC) (F)     (DEG/KT/KT) (MB)
THOMAS PT LIGHT  1900   81 81  180/  4/  4 1017.3
BALT KEY BRIDGE  1800   82     120/  7/  8 1017.2F
COVE POINT       1800   81     350/  2/  3 1018.4F
LEWISETTA        1800   79 80   80/  5/  6 1017.4F
SOLOMONS ISLAND  1800      81                N/A
PINEY POINT      1805           CALM  /  1   N/A

$$




USA.gov is the U.S. government's official web portal to all federal, state and local government web resources and services.